SDGSAT-1

operational
NORAD ID: 49387 Int'l Des: 2021-100 Owner: CAS Country: CN
LEOCIRCULARRETROGRADESSO

About SDGSAT-1

Description loading...

Live Position

Loading 3D Globe...

Upcoming Passes

Altitude History

Altitude vs Time

uPlot chart will show altitude changes over time

Two-Line Element Set

1 49387U 21100A 26062.67785343 .00005365 00000-0 25704-3 0 9994
2 49387 97.2782 113.5008 0006827 310.4983 49.5657 15.19313109239897
Epoch: Mar 3, 2026 • Age: 30 hours

Current Status

Altitude 515.0 km
Velocity 7.61 km/s
Sub-Earth Point -30.43°S, 139.09°W
Launch Date Nov 5, 2021
Age 4.3 years
Type other

Technical Details

Classification Payload
Mass 500.00 kg
Dry Mass 500.00 kg
Total Mass 500.00 kg
Length 2.00 m
Diameter 1.00 m
Span 3.00 m
Shape Box+pan
Manufacturer IMICAS
Bus Type SDGSAT
Phase Status In Orbit
Owner/State CAS/CN

Large Constellations

Loading constellations...